RYR52UR LIPH-LROP

Flight info

Callsign RYR52UR
Flight time 1h 29m
Altitude 18000
Route INBUT N503 LAREN Q561 AKADO/N0396F190 L615 ROTAR/N0460F350 DCT NAKIT DCT PUL DCT ENUPU DCT VELIP DCT TOSVI
Aircraft B738/M-SDE2E3FGHIRWXY/LB1

Departure

Time 2026-05-08 17:03
Airport Treviso Airport (LIPH)

Arrival

Time 2026-05-08 18:32
Airport Bucharest Henri Coandă International Airport (LROP)
Time Latitude Longitude Altitude Speed Heading
2026-05-08 16:29 45.65364 12.20379 56 ft 0 kts 340°
2026-05-08 16:55 45.65353 12.20385 53 ft 4 kts 341°
2026-05-08 16:55 45.65327 12.20395 53 ft 4 kts 358°
2026-05-08 16:55 45.65306 12.20388 57 ft 4 kts 57°
2026-05-08 16:55 45.65302 12.20381 55 ft 2 kts 69°
2026-05-08 17:00 45.65303 12.20382 61 ft 0 kts 69°
2026-05-08 17:00 45.65308 12.20402 55 ft 5 kts 69°
2026-05-08 17:01 45.65323 12.20460 59 ft 8 kts 69°
2026-05-08 17:01 45.65351 12.20559 53 ft 14 kts 69°
2026-05-08 17:01 45.65381 12.20691 58 ft 12 kts 93°
2026-05-08 17:01 45.65320 12.20755 56 ft 11 kts 160°
2026-05-08 17:02 45.65247 12.20791 58 ft 11 kts 168°
2026-05-08 17:02 45.65197 12.20712 62 ft 15 kts 249°
2026-05-08 17:02 45.65081 12.20273 60 ft 81 kts 250°
2026-05-08 17:02 45.64803 12.19230 64 ft 140 kts 249°
2026-05-08 17:03 45.64424 12.17771 328 ft 164 kts 250°
2026-05-08 17:03 45.64030 12.16206 986 ft 169 kts 245°
2026-05-08 17:03 45.63539 12.14644 1628 ft 176 kts 244°
2026-05-08 17:03 45.63025 12.13019 2210 ft 186 kts 245°
2026-05-08 17:04 45.62477 12.11282 2741 ft 198 kts 245°
2026-05-08 17:04 45.61889 12.09446 3207 ft 206 kts 245°
2026-05-08 17:04 45.61293 12.07554 3709 ft 210 kts 246°
2026-05-08 17:04 45.60676 12.05583 3969 ft 226 kts 246°
2026-05-08 17:05 45.59994 12.03469 4314 ft 239 kts 245°
2026-05-08 17:05 45.59262 12.01271 4687 ft 256 kts 244°
2026-05-08 17:05 45.58445 11.98845 4927 ft 280 kts 244°
2026-05-08 17:05 45.57601 11.96354 5619 ft 284 kts 244°
2026-05-08 17:06 45.56744 11.93786 6472 ft 282 kts 245°
2026-05-08 17:06 45.55926 11.91297 7331 ft 279 kts 245°
2026-05-08 17:06 45.55029 11.88839 8039 ft 282 kts 233°
2026-05-08 17:06 45.53551 11.86991 8642 ft 286 kts 204°
2026-05-08 17:07 45.51615 11.86457 9323 ft 288 kts 174°
2026-05-08 17:07 45.49729 11.87349 9903 ft 289 kts 147°
2026-05-08 17:07 45.48281 11.89338 9843 ft 291 kts 119°
2026-05-08 17:07 45.47627 11.92022 9876 ft 286 kts 101°
2026-05-08 17:08 45.47240 11.94757 9999 ft 278 kts 107°
2026-05-08 17:08 45.46643 11.97407 10101 ft 286 kts 107°
2026-05-08 17:08 45.45976 12.00171 10227 ft 304 kts 111°
2026-05-08 17:08 45.45194 12.03083 10374 ft 325 kts 111°
2026-05-08 17:09 45.44364 12.06179 10521 ft 345 kts 111°
2026-05-08 17:09 45.43502 12.09470 10667 ft 363 kts 110°
2026-05-08 17:09 45.42615 12.12926 10795 ft 381 kts 110°
2026-05-08 17:09 45.41705 12.16530 11087 ft 391 kts 110°
2026-05-08 17:10 45.40790 12.20188 11611 ft 393 kts 110°
2026-05-08 17:10 45.39873 12.23867 12229 ft 395 kts 110°
2026-05-08 17:10 45.38952 12.27565 12757 ft 399 kts 110°
2026-05-08 17:10 45.38018 12.31308 13303 ft 403 kts 110°
2026-05-08 17:11 45.37078 12.35071 13891 ft 406 kts 110°
2026-05-08 17:11 45.36127 12.38873 14422 ft 409 kts 111°
2026-05-08 17:11 45.35166 12.42709 14888 ft 414 kts 110°
2026-05-08 17:11 45.34193 12.46582 15400 ft 418 kts 110°
2026-05-08 17:12 45.33223 12.50490 15957 ft 421 kts 108°
2026-05-08 17:12 45.32430 12.54512 16467 ft 425 kts 104°
2026-05-08 17:12 45.31978 12.57229 16780 ft 428 kts 103°
2026-05-08 17:12 45.31325 12.61373 17251 ft 432 kts 103°
2026-05-08 17:13 45.30650 12.65612 17712 ft 437 kts 103°
2026-05-08 17:13 45.29956 12.69812 18051 ft 438 kts 103°
2026-05-08 17:13 45.29245 12.73983 18028 ft 439 kts 104°
2026-05-08 17:13 45.28516 12.78206 18034 ft 440 kts 103°
2026-05-08 17:14 45.27916 12.82451 18062 ft 440 kts 99°
2026-05-08 17:14 45.27506 12.86757 18451 ft 442 kts 97°
2026-05-08 17:14 45.27122 12.91097 18901 ft 444 kts 97°
2026-05-08 17:14 45.26704 12.95461 19332 ft 448 kts 98°
2026-05-08 17:15 45.26246 12.99852 19704 ft 452 kts 100°
2026-05-08 17:15 45.25603 13.04236 20050 ft 456 kts 103°
2026-05-08 17:15 45.24867 13.08638 20426 ft 460 kts 104°
2026-05-08 17:15 45.24106 13.13066 20792 ft 463 kts 104°
2026-05-08 17:16 45.23344 13.17522 21146 ft 467 kts 104°
2026-05-08 17:16 45.22587 13.22020 21478 ft 471 kts 104°
2026-05-08 17:16 45.21833 13.26561 21809 ft 475 kts 104°
2026-05-08 17:16 45.21078 13.31134 22142 ft 478 kts 104°
2026-05-08 17:17 45.20313 13.35746 22462 ft 481 kts 104°
2026-05-08 17:17 45.19464 13.40354 22782 ft 484 kts 110°
2026-05-08 17:17 45.18142 13.44745 23070 ft 485 kts 120°
2026-05-08 17:17 45.16433 13.48861 23407 ft 486 kts 121°
2026-05-08 17:18 45.15089 13.53281 23734 ft 492 kts 107°
2026-05-08 17:18 45.14477 13.58058 24027 ft 495 kts 96°
2026-05-08 17:18 45.14393 13.62948 24355 ft 497 kts 90°
2026-05-08 17:18 45.14427 13.67847 24637 ft 499 kts 91°
2026-05-08 17:19 45.14407 13.72709 24893 ft 501 kts 92°
2026-05-08 17:19 45.14353 13.77657 25135 ft 504 kts 92°
2026-05-08 17:19 45.14280 13.82630 25388 ft 505 kts 92°
2026-05-08 17:19 45.14200 13.87605 25712 ft 505 kts 92°
2026-05-08 17:20 45.14117 13.92574 26102 ft 503 kts 93°
2026-05-08 17:20 45.14034 13.97512 26518 ft 501 kts 93°
2026-05-08 17:20 45.13953 14.02443 26981 ft 498 kts 93°
2026-05-08 17:20 45.13872 14.07333 27404 ft 496 kts 93°
2026-05-08 17:21 45.13790 14.12209 27767 ft 496 kts 93°
2026-05-08 17:21 45.13707 14.17092 28144 ft 495 kts 93°
2026-05-08 17:21 45.13622 14.21957 28573 ft 493 kts 93°
2026-05-08 17:21 45.13536 14.26816 28975 ft 492 kts 93°
2026-05-08 17:22 45.13447 14.31662 29368 ft 491 kts 93°
2026-05-08 17:22 45.13356 14.36487 29755 ft 490 kts 94°
2026-05-08 17:22 45.13264 14.41317 30039 ft 492 kts 94°
2026-05-08 17:22 45.13168 14.46170 30320 ft 492 kts 94°
2026-05-08 17:23 45.13071 14.51013 30650 ft 490 kts 94°
2026-05-08 17:23 45.12973 14.55826 30998 ft 489 kts 94°
2026-05-08 17:23 45.12872 14.60639 31312 ft 489 kts 94°
2026-05-08 17:23 45.12769 14.65457 31570 ft 489 kts 94°
2026-05-08 17:24 45.12665 14.70261 31863 ft 488 kts 94°
2026-05-08 17:24 45.12559 14.75070 32167 ft 487 kts 94°
2026-05-08 17:24 45.12450 14.79864 32469 ft 487 kts 94°
2026-05-08 17:24 45.12340 14.84659 32792 ft 486 kts 94°
2026-05-08 17:25 45.12229 14.89419 33145 ft 484 kts 94°
2026-05-08 17:25 45.12116 14.94181 33478 ft 483 kts 94°
2026-05-08 17:25 45.12001 14.98917 33791 ft 481 kts 95°
2026-05-08 17:25 45.11885 15.03649 34089 ft 480 kts 95°
2026-05-08 17:26 45.11768 15.08319 34323 ft 480 kts 95°
2026-05-08 17:26 45.11647 15.13040 34502 ft 481 kts 95°
2026-05-08 17:26 45.11524 15.17781 34661 ft 482 kts 95°
2026-05-08 17:26 45.11399 15.22517 34860 ft 482 kts 95°
2026-05-08 17:27 45.11272 15.27261 35031 ft 483 kts 94°
2026-05-08 17:27 45.11143 15.32027 35028 ft 486 kts 95°
2026-05-08 17:27 45.10875 15.41649 35047 ft 491 kts 95°
2026-05-08 17:28 45.10597 15.51369 35044 ft 495 kts 95°
2026-05-08 17:28 45.10310 15.61110 35034 ft 495 kts 95°
2026-05-08 17:29 45.10016 15.70845 35028 ft 494 kts 95°
2026-05-08 17:29 45.09714 15.80561 35033 ft 494 kts 95°
2026-05-08 17:30 45.09405 15.90209 35039 ft 494 kts 95°
2026-05-08 17:30 45.09086 15.99921 35033 ft 494 kts 95°
2026-05-08 17:31 45.08759 16.09625 35031 ft 494 kts 95°
2026-05-08 17:31 45.08423 16.19328 35029 ft 493 kts 95°
2026-05-08 17:32 45.08080 16.29020 35028 ft 493 kts 95°
2026-05-08 17:32 45.07729 16.38709 35032 ft 493 kts 95°
2026-05-08 17:33 45.07370 16.48389 35034 ft 493 kts 95°
2026-05-08 17:33 45.07002 16.58070 35030 ft 493 kts 95°
2026-05-08 17:34 45.06626 16.67750 35025 ft 493 kts 95°
2026-05-08 17:34 45.06243 16.77424 35018 ft 493 kts 96°
2026-05-08 17:35 45.05851 16.87102 35024 ft 493 kts 96°
2026-05-08 17:35 45.05450 16.96786 35021 ft 493 kts 96°
2026-05-08 17:36 45.05041 17.06479 35030 ft 493 kts 96°
2026-05-08 17:36 45.04626 17.16103 35021 ft 494 kts 96°
2026-05-08 17:37 45.04200 17.25806 35025 ft 494 kts 96°
2026-05-08 17:37 45.03765 17.35525 35032 ft 495 kts 96°
2026-05-08 17:38 45.03322 17.45239 35021 ft 496 kts 96°
2026-05-08 17:38 45.02870 17.54964 35016 ft 495 kts 96°
2026-05-08 17:39 45.02411 17.64673 35019 ft 494 kts 96°
2026-05-08 17:39 45.01944 17.74374 35019 ft 495 kts 96°
2026-05-08 17:40 45.01468 17.84067 35017 ft 495 kts 96°
2026-05-08 17:40 45.00984 17.93765 35012 ft 495 kts 96°
2026-05-08 17:41 45.00492 18.03465 35019 ft 495 kts 96°
2026-05-08 17:41 44.99991 18.13169 35024 ft 495 kts 96°
2026-05-08 17:42 44.99481 18.22887 35017 ft 496 kts 96°
2026-05-08 17:42 44.98963 18.32608 35007 ft 496 kts 96°
2026-05-08 17:43 44.98437 18.42318 35020 ft 496 kts 96°
2026-05-08 17:43 44.97906 18.51956 35007 ft 496 kts 96°
2026-05-08 17:44 44.97363 18.61673 35010 ft 496 kts 96°
2026-05-08 17:44 44.96812 18.71388 35010 ft 496 kts 96°
2026-05-08 17:45 44.96253 18.81089 34999 ft 496 kts 97°
2026-05-08 17:45 44.95686 18.90785 35012 ft 496 kts 97°
2026-05-08 17:46 44.95111 19.00479 35014 ft 495 kts 97°
2026-05-08 17:46 44.94528 19.10169 35014 ft 495 kts 97°
2026-05-08 17:47 44.93937 19.19856 35004 ft 496 kts 97°
2026-05-08 17:47 44.93435 19.27981 35001 ft 496 kts 97°
2026-05-08 17:48 44.92729 19.39239 35011 ft 496 kts 97°
2026-05-08 17:48 44.92112 19.48935 34996 ft 496 kts 97°
2026-05-08 17:49 44.91488 19.58623 34993 ft 495 kts 97°
2026-05-08 17:49 44.90855 19.68303 34998 ft 495 kts 97°
2026-05-08 17:50 44.90215 19.77972 35006 ft 495 kts 97°
2026-05-08 17:50 44.89569 19.87621 34995 ft 493 kts 97°
2026-05-08 17:51 44.88917 19.97222 34996 ft 491 kts 97°
2026-05-08 17:51 44.88257 20.06812 34996 ft 492 kts 97°
2026-05-08 17:52 44.87588 20.16422 34995 ft 492 kts 97°
2026-05-08 17:53 44.86573 20.30793 34989 ft 490 kts 97°
2026-05-08 17:53 44.85892 20.40279 34995 ft 489 kts 97°
2026-05-08 17:54 44.85198 20.49842 34995 ft 489 kts 97°
2026-05-08 17:54 44.84498 20.59375 34988 ft 489 kts 97°
2026-05-08 17:55 44.83790 20.68904 35003 ft 489 kts 98°
2026-05-08 17:55 44.83195 20.76835 34999 ft 489 kts 98°
2026-05-08 17:56 44.82472 20.86369 34998 ft 489 kts 98°
2026-05-08 17:56 44.81742 20.95890 35001 ft 489 kts 98°
2026-05-08 17:57 44.81007 21.05376 34991 ft 486 kts 98°
2026-05-08 17:57 44.80266 21.14828 35000 ft 485 kts 98°
2026-05-08 17:58 44.79517 21.24277 34996 ft 486 kts 98°
2026-05-08 17:58 44.78759 21.33740 35002 ft 486 kts 98°
2026-05-08 17:59 44.78002 21.43121 35008 ft 485 kts 98°
2026-05-08 17:59 44.77235 21.52565 34997 ft 486 kts 97°
2026-05-08 18:00 44.77075 21.62078 35010 ft 487 kts 90°
2026-05-08 18:00 44.77344 21.76389 35000 ft 486 kts 90°
2026-05-08 18:01 44.77474 21.85866 35001 ft 483 kts 90°
2026-05-08 18:01 44.77555 21.95320 35009 ft 483 kts 90°
2026-05-08 18:02 44.77616 22.04776 35010 ft 483 kts 90°
2026-05-08 18:02 44.77669 22.14246 35015 ft 484 kts 91°
2026-05-08 18:03 44.77718 22.23710 35000 ft 484 kts 91°
2026-05-08 18:03 44.77759 22.33182 35004 ft 484 kts 91°
2026-05-08 18:04 44.77793 22.42669 35005 ft 484 kts 91°
2026-05-08 18:04 44.77819 22.52082 34999 ft 484 kts 91°
2026-05-08 18:05 44.77837 22.61545 34995 ft 483 kts 91°
2026-05-08 18:05 44.77847 22.71008 34995 ft 483 kts 91°
2026-05-08 18:06 44.77850 22.80464 34996 ft 482 kts 91°
2026-05-08 18:06 44.77844 22.89900 34998 ft 482 kts 91°
2026-05-08 18:07 44.77831 22.99341 34997 ft 482 kts 91°
2026-05-08 18:07 44.77810 23.08775 34994 ft 482 kts 91°
2026-05-08 18:08 44.77781 23.18227 34989 ft 483 kts 91°
2026-05-08 18:08 44.77744 23.27692 34998 ft 483 kts 91°
2026-05-08 18:09 44.77700 23.37163 35000 ft 484 kts 91°
2026-05-08 18:09 44.77648 23.46648 34809 ft 488 kts 92°
2026-05-08 18:10 44.77618 23.51434 34296 ft 484 kts 92°
2026-05-08 18:10 44.77589 23.56126 33610 ft 474 kts 92°
2026-05-08 18:10 44.77557 23.60684 32945 ft 470 kts 92°
2026-05-08 18:10 44.77523 23.65359 32228 ft 471 kts 92°
2026-05-08 18:11 44.77486 23.69966 31512 ft 471 kts 92°
2026-05-08 18:11 44.77448 23.74515 30794 ft 472 kts 91°
2026-05-08 18:11 44.77408 23.79137 30066 ft 473 kts 91°
2026-05-08 18:11 44.77366 23.83837 29142 ft 474 kts 91°
2026-05-08 18:12 44.77322 23.88470 28302 ft 474 kts 91°
2026-05-08 18:12 44.77278 23.93051 27448 ft 474 kts 91°
2026-05-08 18:12 44.77230 23.97687 26546 ft 474 kts 91°
2026-05-08 18:12 44.77094 24.02331 25558 ft 476 kts 97°
2026-05-08 18:13 44.76618 24.06939 24679 ft 477 kts 100°
2026-05-08 18:13 44.76049 24.11519 23999 ft 473 kts 100°
2026-05-08 18:13 44.75464 24.16044 23361 ft 467 kts 101°
2026-05-08 18:13 44.74892 24.20509 22649 ft 461 kts 100°
2026-05-08 18:14 44.74340 24.24927 21977 ft 455 kts 101°
2026-05-08 18:14 44.73806 24.29295 21291 ft 450 kts 100°
2026-05-08 18:14 44.73286 24.33614 20643 ft 445 kts 100°
2026-05-08 18:14 44.72777 24.37882 20013 ft 440 kts 100°
2026-05-08 18:15 44.72274 24.42098 19409 ft 435 kts 100°
2026-05-08 18:15 44.71775 24.46276 18801 ft 430 kts 101°
2026-05-08 18:15 44.71281 24.50399 18197 ft 426 kts 101°
2026-05-08 18:15 44.70790 24.54472 17516 ft 421 kts 101°
2026-05-08 18:16 44.70302 24.58512 16842 ft 417 kts 101°
2026-05-08 18:16 44.69817 24.62517 16185 ft 413 kts 101°
2026-05-08 18:16 44.69334 24.66483 15547 ft 409 kts 101°
2026-05-08 18:16 44.68855 24.70407 14953 ft 405 kts 101°
2026-05-08 18:17 44.68380 24.74287 14352 ft 401 kts 101°
2026-05-08 18:17 44.67908 24.78130 13759 ft 397 kts 101°
2026-05-08 18:17 44.67440 24.81933 13110 ft 394 kts 101°
2026-05-08 18:17 44.66976 24.85686 12743 ft 384 kts 101°
2026-05-08 18:18 44.66528 24.89310 12625 ft 368 kts 101°
2026-05-08 18:18 44.66098 24.92784 12518 ft 354 kts 101°
2026-05-08 18:18 44.65686 24.96093 12405 ft 341 kts 101°
2026-05-08 18:18 44.65285 24.99312 12323 ft 329 kts 101°
2026-05-08 18:19 44.64891 25.02463 12242 ft 317 kts 101°
2026-05-08 18:19 44.64519 25.05427 12167 ft 307 kts 101°
2026-05-08 18:19 44.64155 25.08326 12051 ft 298 kts 101°
2026-05-08 18:19 44.63797 25.11167 11772 ft 295 kts 101°
2026-05-08 18:20 44.63438 25.14004 11435 ft 295 kts 101°
2026-05-08 18:20 44.63079 25.16843 11115 ft 294 kts 101°
2026-05-08 18:20 44.62721 25.19666 10823 ft 294 kts 100°
2026-05-08 18:20 44.62362 25.22490 10553 ft 293 kts 100°
2026-05-08 18:21 44.61776 25.25207 10249 ft 292 kts 120°
2026-05-08 18:21 44.60521 25.27434 9964 ft 292 kts 134°
2026-05-08 18:21 44.59084 25.29442 9664 ft 292 kts 136°
2026-05-08 18:21 44.57622 25.31425 9356 ft 291 kts 136°
2026-05-08 18:22 44.56168 25.33386 9089 ft 289 kts 136°
2026-05-08 18:22 44.54720 25.35331 8844 ft 287 kts 136°
2026-05-08 18:22 44.53278 25.37264 8552 ft 287 kts 135°
2026-05-08 18:22 44.52101 25.39486 8252 ft 285 kts 112°
2026-05-08 18:23 44.51633 25.42151 8117 ft 278 kts 98°
2026-05-08 18:23 44.51534 25.44809 8042 ft 269 kts 85°
2026-05-08 18:23 44.51769 25.47363 7988 ft 260 kts 81°
2026-05-08 18:23 44.52041 25.49832 7920 ft 252 kts 81°
2026-05-08 18:24 44.52288 25.52224 7862 ft 244 kts 82°
2026-05-08 18:24 44.52504 25.54543 7771 ft 237 kts 83°
2026-05-08 18:24 44.52699 25.56824 7587 ft 234 kts 83°
2026-05-08 18:24 44.52880 25.59071 7358 ft 230 kts 84°
2026-05-08 18:25 44.53053 25.61267 7159 ft 224 kts 83°
2026-05-08 18:25 44.53221 25.63382 7040 ft 213 kts 84°
2026-05-08 18:25 44.53374 25.65421 6805 ft 209 kts 84°
2026-05-08 18:25 44.53521 25.67433 6467 ft 207 kts 84°
2026-05-08 18:26 44.53665 25.69441 6065 ft 207 kts 84°
2026-05-08 18:26 44.53804 25.71387 5839 ft 197 kts 84°
2026-05-08 18:26 44.53941 25.73294 5479 ft 196 kts 84°
2026-05-08 18:26 44.54077 25.75192 5097 ft 195 kts 84°
2026-05-08 18:27 44.54212 25.77060 4727 ft 195 kts 84°
2026-05-08 18:27 44.54304 25.78334 4474 ft 194 kts 84°
2026-05-08 18:27 44.54481 25.80782 3919 ft 189 kts 85°
2026-05-08 18:27 44.54614 25.82608 3467 ft 186 kts 85°
2026-05-08 18:28 44.54743 25.84383 3208 ft 177 kts 85°
2026-05-08 18:28 44.54868 25.86091 2994 ft 176 kts 86°
2026-05-08 18:28 44.54992 25.87797 2784 ft 177 kts 85°
2026-05-08 18:28 44.55118 25.89506 2586 ft 175 kts 86°
2026-05-08 18:29 44.55242 25.91209 2363 ft 175 kts 86°
2026-05-08 18:29 44.55365 25.92869 2163 ft 171 kts 87°
2026-05-08 18:29 44.55482 25.94492 2003 ft 166 kts 87°
2026-05-08 18:29 44.55587 25.96043 1654 ft 157 kts 88°
2026-05-08 18:30 44.55691 25.97537 1443 ft 151 kts 87°
2026-05-08 18:30 44.55803 25.98952 1327 ft 144 kts 86°
2026-05-08 18:30 44.55926 26.00364 1262 ft 149 kts 85°
2026-05-08 18:30 44.56043 26.01847 1148 ft 155 kts 86°
2026-05-08 18:31 44.56143 26.03345 889 ft 149 kts 87°
2026-05-08 18:31 44.56246 26.04753 732 ft 144 kts 85°
2026-05-08 18:31 44.56346 26.06171 565 ft 147 kts 85°
2026-05-08 18:31 44.56460 26.07587 379 ft 147 kts 86°
2026-05-08 18:32 44.56561 26.08952 320 ft 126 kts 85°
2026-05-08 18:32 44.56636 26.09958 322 ft 83 kts 84°
2026-05-08 18:32 44.56673 26.10439 322 ft 40 kts 84°
2026-05-08 18:32 44.56701 26.10723 321 ft 21 kts 59°
2026-05-08 18:33 44.56827 26.10755 321 ft 18 kts 354°
2026-05-08 18:33 44.56943 26.10739 320 ft 14 kts 352°
2026-05-08 18:33 44.57006 26.10697 321 ft 10 kts 316°
2026-05-08 18:33 44.57043 26.10618 320 ft 10 kts 301°
2026-05-08 18:34 44.57067 26.10533 321 ft 9 kts 275°
2026-05-08 18:34 44.57062 26.10436 320 ft 11 kts 264°
2026-05-08 18:34 44.57052 26.10313 321 ft 14 kts 264°
2026-05-08 18:34 44.57041 26.10174 321 ft 14 kts 264°
2026-05-08 18:35 44.57032 26.10045 321 ft 13 kts 264°
2026-05-08 18:35 44.57022 26.09923 321 ft 12 kts 263°
2026-05-08 18:35 44.57012 26.09800 321 ft 14 kts 263°
2026-05-08 18:35 44.57001 26.09654 321 ft 16 kts 264°
2026-05-08 18:36 44.56989 26.09500 321 ft 16 kts 263°
2026-05-08 18:36 44.56977 26.09351 320 ft 15 kts 264°
2026-05-08 18:36 44.56967 26.09209 321 ft 14 kts 264°
2026-05-08 18:36 44.56957 26.09070 321 ft 14 kts 264°
2026-05-08 18:37 44.56947 26.08941 321 ft 13 kts 263°
2026-05-08 18:37 44.56938 26.08826 321 ft 7 kts 262°
2026-05-08 18:37 44.56899 26.08808 320 ft 4 kts 175°
2026-05-08 18:37 44.56886 26.08810 320 ft 1 kts 174°